DELFI-N3XT

Last updated on Sat Apr 13 2024 01:03:32 GMT+0100 (British Summer Time)

1 39428U 13066N 24103.37764224 .00006582 00000+0 86656-3 0 9991 2 39428 97.8392 23.5068 0101569 302.6107 56.5330 14.76899722556374
UTC large
Height (km)
Speed (km/s)
/
Latitude / Longitude
Inclination (degrees)
Orbital Period (minutes)
Azimuth
Elevation
Range (km)
Doppler Factor

Next 0 passes for location: London (51.5072 / 0.1276)

Sorry there are no passes over London.